TimeMDT,TemperatureF,Dew PointF,Humidity,Sea Level PressureIn,VisibilityMPH,Wind Direction,Wind SpeedMPH,Gust SpeedMPH,PrecipitationIn,Events,Conditions,WindDirDegrees,DateUTC
12:53 AM,43.0,27.0,53,29.93,10.0,NW,6.9,-,N/A,,Scattered Clouds,310,2013-03-16 06:53:00
1:53 AM,44.1,27.0,51,29.92,10.0,WNW,9.2,-,N/A,,Mostly Cloudy,300,2013-03-16 07:53:00
2:53 AM,43.0,26.1,51,29.94,10.0,West,12.7,-,N/A,,Overcast,270,2013-03-16 08:53:00
3:53 AM,42.1,27.0,55,29.94,10.0,North,5.8,-,0.00,,Overcast,360,2013-03-16 09:53:00
4:53 AM,41.0,28.0,60,29.93,10.0,East,6.9,-,N/A,,Partly Cloudy,100,2013-03-16 10:53:00
5:53 AM,39.9,32.0,73,29.94,10.0,SSE,3.5,-,N/A,,Overcast,150,2013-03-16 11:53:00
6:53 AM,39.9,32.0,73,29.93,10.0,Calm,Calm,-,N/A,,Overcast,0,2013-03-16 12:53:00
7:53 AM,39.0,32.0,76,29.94,10.0,SE,3.5,-,N/A,,Overcast,140,2013-03-16 13:53:00
8:53 AM,41.0,32.0,70,29.95,10.0,Calm,Calm,-,N/A,,Overcast,0,2013-03-16 14:53:00
9:53 AM,42.1,34.0,73,29.96,10.0,Calm,Calm,-,N/A,,Overcast,0,2013-03-16 15:53:00
10:53 AM,43.0,36.0,76,29.95,10.0,SSE,5.8,-,0.00,,Overcast,160,2013-03-16 16:53:00
11:53 AM,46.9,35.1,63,29.92,10.0,South,5.8,-,N/A,,Overcast,180,2013-03-16 17:53:00
12:53 PM,48.9,35.1,59,29.90,10.0,SSE,4.6,-,N/A,,Partly Cloudy,160,2013-03-16 18:53:00
1:53 PM,48.0,32.0,54,29.87,10.0,Calm,Calm,-,N/A,,Scattered Clouds,0,2013-03-16 19:53:00
2:53 PM,51.1,30.0,44,29.83,10.0,Variable,4.6,-,N/A,,Scattered Clouds,0,2013-03-16 20:53:00
3:53 PM,52.0,28.0,40,29.81,10.0,Calm,Calm,-,N/A,,Overcast,0,2013-03-16 21:53:00
4:53 PM,52.0,28.9,41,29.80,10.0,SSE,6.9,-,N/A,,Scattered Clouds,160,2013-03-16 22:53:00
5:53 PM,52.0,28.9,41,29.77,10.0,SSE,8.1,-,N/A,,Clear,150,2013-03-16 23:53:00
6:53 PM,50.0,28.9,44,29.77,10.0,South,6.9,-,N/A,,Clear,180,2013-03-17 00:53:00
7:53 PM,46.0,28.0,50,29.77,10.0,South,6.9,-,N/A,,Clear,190,2013-03-17 01:53:00
8:53 PM,44.1,28.9,55,29.76,10.0,Calm,Calm,-,N/A,,Clear,0,2013-03-17 02:53:00
9:53 PM,41.0,30.0,65,29.76,10.0,Calm,Calm,-,N/A,,Clear,0,2013-03-17 03:53:00
10:53 PM,39.0,30.9,73,29.74,10.0,Calm,Calm,-,N/A,,Clear,0,2013-03-17 04:53:00
11:53 PM,39.0,28.9,67,29.70,10.0,SSE,3.5,-,N/A,,Clear,150,2013-03-17 05:53:00